EXS64B LDDU-EGCC

Flight info

Callsign EXS64B
Flight time N/A
Altitude 36000
Route AMUGO1V AMUGO DCT SPL DCT ZDA DCT PUL DCT PEVAL DCT MOBDO DCT SOTOV DCT KPT DCT TEDGO DCT LIRSU DCT DENUT L610 LAM UN57 WELIN T420 ELVOS ELVOS1M
Aircraft A321/M-SDE3FGHIRWY/LB1

Departure

Time 2026-05-04 16:28
Airport Dubrovnik Ruđer Bošković Airport (LDDU)

Arrival

Time N/A
Airport Manchester Airport (EGCC)
Time Latitude Longitude Altitude Speed Heading
2026-05-04 16:14 42.56215 18.25993 525 ft 0 kts 210°
2026-05-04 16:19 42.56270 18.26010 525 ft 3 kts 132°
2026-05-04 16:19 42.56278 18.25995 525 ft 0 kts 118°
2026-05-04 16:21 42.56275 18.26003 525 ft 4 kts 118°
2026-05-04 16:22 42.56231 18.26115 524 ft 12 kts 117°
2026-05-04 16:22 42.56095 18.26456 521 ft 13 kts 120°
2026-05-04 16:23 42.55971 18.26766 518 ft 12 kts 118°
2026-05-04 16:24 42.55816 18.27160 514 ft 17 kts 118°
2026-05-04 16:25 42.55706 18.27438 511 ft 17 kts 117°
2026-05-04 16:26 42.55474 18.28025 506 ft 23 kts 114°
2026-05-04 16:26 42.55611 18.28151 506 ft 0 kts 298°
2026-05-04 16:27 42.55812 18.27643 509 ft 90 kts 298°
2026-05-04 16:28 42.57231 18.24063 1389 ft 158 kts 297°
2026-05-04 16:28 42.58887 18.19890 2580 ft 192 kts 297°
2026-05-04 16:29 42.61973 18.12073 4108 ft 262 kts 297°
2026-05-04 16:30 42.64616 18.05381 6370 ft 274 kts 299°
2026-05-04 16:31 42.66449 18.00756 7772 ft 281 kts 302°
2026-05-04 16:31 42.69758 17.94008 9979 ft 290 kts 306°
2026-05-04 16:32 42.73476 17.86702 10812 ft 343 kts 306°
2026-05-04 16:33 42.76213 17.81247 12003 ft 352 kts 306°
2026-05-04 16:33 42.78982 17.75674 13340 ft 358 kts 305°
2026-05-04 16:34 42.81799 17.70000 14554 ft 365 kts 305°
2026-05-04 16:34 42.83233 17.67125 15142 ft 368 kts 305°
2026-05-04 16:35 42.87594 17.58379 16883 ft 376 kts 305°
2026-05-04 16:35 42.92035 17.49419 18578 ft 384 kts 305°
2026-05-04 16:36 42.93510 17.46428 19047 ft 386 kts 305°
2026-05-04 16:36 42.96521 17.40319 20020 ft 390 kts 305°
2026-05-04 16:37 42.99564 17.34134 20931 ft 394 kts 304°
2026-05-04 16:37 43.01094 17.31013 21400 ft 396 kts 304°
2026-05-04 16:37 43.04181 17.24717 22340 ft 400 kts 305°
2026-05-04 16:38 43.07295 17.18374 23249 ft 404 kts 305°
2026-05-04 16:39 43.11478 17.09810 24312 ft 409 kts 305°
2026-05-04 16:39 43.14645 17.03301 25046 ft 412 kts 304°
2026-05-04 16:40 43.17842 16.96738 25739 ft 416 kts 304°
2026-05-04 16:40 43.21060 16.90112 26429 ft 419 kts 304°
2026-05-04 16:41 43.24293 16.83413 27112 ft 423 kts 304°
2026-05-04 16:41 43.29194 16.73265 28089 ft 427 kts 304°
2026-05-04 16:42 43.34126 16.63027 29023 ft 432 kts 304°
2026-05-04 16:43 43.37442 16.56112 29635 ft 434 kts 303°
2026-05-04 16:43 43.40770 16.49156 30276 ft 436 kts 303°
2026-05-04 16:43 43.42438 16.45663 30615 ft 435 kts 304°
2026-05-04 16:44 43.49069 16.31735 31938 ft 433 kts 304°
2026-05-04 16:45 43.52940 16.25393 32616 ft 432 kts 311°
2026-05-04 16:46 43.58909 16.16170 33658 ft 430 kts 311°
2026-05-04 16:46 43.62877 16.10001 34308 ft 429 kts 311°
2026-05-04 16:47 43.66824 16.03842 34913 ft 427 kts 310°
2026-05-04 16:47 43.70743 15.97711 35510 ft 424 kts 310°
2026-05-04 16:48 43.76575 15.88589 36112 ft 419 kts 310°
2026-05-04 16:48 43.78511 15.85554 36108 ft 424 kts 310°
2026-05-04 16:49 43.86412 15.73110 36105 ft 436 kts 310°
2026-05-04 16:50 43.94432 15.60452 36114 ft 437 kts 310°
2026-05-04 16:51 44.00442 15.50915 36120 ft 437 kts 310°
2026-05-04 16:52 44.08278 15.38354 36116 ft 437 kts 310°
2026-05-04 16:53 44.14113 15.28579 36100 ft 437 kts 307°
2026-05-04 16:54 44.21501 15.15136 36119 ft 438 kts 307°
2026-05-04 16:55 44.32787 14.94991 36094 ft 440 kts 307°
2026-05-04 16:56 44.42116 14.78205 36126 ft 441 kts 306°
2026-05-04 16:57 44.47714 14.68075 36121 ft 440 kts 306°
2026-05-04 16:58 44.55199 14.54465 36122 ft 440 kts 306°
2026-05-04 17:00 44.66368 14.34065 36107 ft 441 kts 306°
2026-05-04 17:01 44.75700 14.16906 36110 ft 442 kts 306°
2026-05-04 17:02 44.83171 14.03099 36114 ft 444 kts 305°
2026-05-04 17:03 44.88761 13.92696 36118 ft 444 kts 305°
2026-05-04 17:03 44.94775 13.82711 36126 ft 446 kts 310°
2026-05-04 17:04 45.03138 13.69833 36104 ft 446 kts 309°
2026-05-04 17:05 45.11335 13.56655 36088 ft 446 kts 309°
2026-05-04 17:06 45.17499 13.46757 36104 ft 446 kts 309°
2026-05-04 17:07 45.22973 13.37975 36095 ft 446 kts 309°
2026-05-04 17:07 45.27770 13.30231 36079 ft 447 kts 309°
2026-05-04 17:08 45.34310 13.20772 36077 ft 449 kts 316°
2026-05-04 17:09 45.38993 13.14899 36081 ft 449 kts 316°
2026-05-04 17:09 45.43598 13.09097 36074 ft 449 kts 316°
2026-05-04 17:10 45.55300 12.94267 36083 ft 450 kts 316°
2026-05-04 17:11 45.59975 12.88323 36078 ft 450 kts 315°
2026-05-04 17:12 45.66981 12.79393 36075 ft 449 kts 316°
2026-05-04 17:13 45.78618 12.64506 36070 ft 450 kts 315°
2026-05-04 17:14 45.87929 12.52499 36072 ft 450 kts 315°